GALAXY 32 (G-32) (54244 NORAD) Tracking and Keplerian Element Data

This shows tracking and keplerian element data for the satellite.

Feedback or suggestion? Click here.




ElementValue
Catalog54244
NameGALAXY 32 (G-32)
Epoch Orbit61
Epoch Day13.69077167
Epoch Year2023
RAAN88.644
Inclination0.0168
Eccentricity0.0008629
Argument of Perigee194.6771
Mean Anonmoly290.5854
Mean Motion1.00591798
Decay Rate1.29E-06
L11 54244U 22153B 23013.69077167 .00000129 00000+0 00000+0 0 9994
L22 54244 0.0168 88.6440 0008629 194.6771 290.5854 1.00591798 616



Live tracking and technical data element details for GALAXY 32 (G-32) (NORAD 54244). GALAXY 32 (G-32) can be tracked NOW for your location showing map with azimuth and elevation plus other details from your city location.







IsCatalogInMostPopularTable: catalog: 54244, numindb: 11
Update: records affected: 1



GetName: 54244 GALAXY 32 (G-32)

Hit Count: updated at: Fri, 27 Jan 2023 20:14:20 GMT